Time,TemperatureF,DewpointF,PressureIn,WindDirection,WindDirectionDegrees,WindSpeedMPH,WindSpeedGustMPH,Humidity,HourlyPrecipIn,Conditions,Clouds,dailyrainin,SoftwareType,DateUTC
2013-06-12 00:03:00,77.0,70.0,29.93,SSW,202,2.0,3.0,78,-99.99,,,-99.99,,2013-06-12 05:03:00,
2013-06-12 00:12:00,75.0,70.0,29.94,NE,45,2.0,3.0,82,-99.99,,,-99.99,,2013-06-12 05:12:00,
2013-06-12 00:22:00,73.0,70.0,29.94,SSE,157,2.0,2.0,88,-99.99,,,-99.99,,2013-06-12 05:22:00,
2013-06-12 00:32:00,73.0,69.0,29.94,South,180,3.0,3.0,87,-99.99,,,-99.99,,2013-06-12 05:32:00,
2013-06-12 00:42:00,74.0,69.0,29.94,South,180,3.0,4.0,86,-99.99,,,-99.99,,2013-06-12 05:42:00,
2013-06-12 00:52:00,73.0,69.0,29.94,South,180,3.0,4.0,87,-99.99,,,-99.99,,2013-06-12 05:52:00,
2013-06-12 01:02:00,74.0,69.0,29.94,SE,135,0.0,-999.0,87,-99.99,,,-99.99,,2013-06-12 06:02:00,
2013-06-12 01:12:00,72.0,69.0,29.94,SE,135,2.0,3.0,89,-99.99,,,-99.99,,2013-06-12 06:12:00,
2013-06-12 01:22:00,72.0,69.0,29.93,SSE,157,2.0,3.0,89,-99.99,,,-99.99,,2013-06-12 06:22:00,
2013-06-12 01:32:00,73.0,69.0,29.93,SSE,157,3.0,4.0,88,-99.99,,,-99.99,,2013-06-12 06:32:00,
2013-06-12 01:42:00,72.0,69.0,29.93,South,180,4.0,6.0,90,-99.99,,,-99.99,,2013-06-12 06:42:00,
2013-06-12 01:52:00,75.0,69.0,29.92,SSW,202,5.0,7.0,82,-99.99,,,-99.99,,2013-06-12 06:52:00,
2013-06-12 02:02:00,75.0,69.0,29.92,SSW,202,5.0,8.0,80,-99.99,,,-99.99,,2013-06-12 07:02:00,
2013-06-12 02:12:00,74.0,68.0,29.92,SSW,202,4.0,7.0,82,-99.99,,,-99.99,,2013-06-12 07:12:00,
2013-06-12 02:22:00,74.0,68.0,29.92,SSW,202,5.0,6.0,83,-99.99,,,-99.99,,2013-06-12 07:22:00,
2013-06-12 02:33:00,73.0,68.0,29.92,SSW,202,5.0,7.0,83,-99.99,,,-99.99,,2013-06-12 07:33:00,
2013-06-12 02:43:00,74.0,68.0,29.92,SSW,202,4.0,7.0,82,-99.99,,,-99.99,,2013-06-12 07:43:00,
2013-06-12 02:53:00,73.0,68.0,29.92,SSW,202,5.0,7.0,82,-99.99,,,-99.99,,2013-06-12 07:53:00,
2013-06-12 03:02:00,73.0,68.0,29.91,SSW,202,4.0,6.0,83,-99.99,,,-99.99,,2013-06-12 08:02:00,
2013-06-12 03:12:00,73.0,68.0,29.91,South,180,4.0,7.0,82,-99.99,,,-99.99,,2013-06-12 08:12:00,
2013-06-12 03:22:00,73.0,67.0,29.91,SSW,202,3.0,5.0,82,-99.99,,,-99.99,,2013-06-12 08:22:00,
2013-06-12 03:33:00,73.0,67.0,29.91,South,180,4.0,6.0,84,-99.99,,,-99.99,,2013-06-12 08:33:00,
2013-06-12 03:43:00,72.0,67.0,29.91,South,180,2.0,4.0,85,-99.99,,,-99.99,,2013-06-12 08:43:00,
2013-06-12 03:53:00,70.0,67.0,29.91,SSE,157,3.0,3.0,88,-99.99,,,-99.99,,2013-06-12 08:53:00,
2013-06-12 04:01:00,70.0,67.0,29.91,South,180,3.0,6.0,90,-99.99,,,-99.99,,2013-06-12 09:01:00,
2013-06-12 04:11:00,71.0,67.0,29.91,SSW,202,4.0,6.0,86,-99.99,,,-99.99,,2013-06-12 09:11:00,
2013-06-12 04:22:00,72.0,67.0,29.91,SSW,202,5.0,9.0,85,-99.99,,,-99.99,,2013-06-12 09:22:00,
2013-06-12 04:33:00,72.0,67.0,29.91,SSW,202,4.0,7.0,85,-99.99,,,-99.99,,2013-06-12 09:33:00,
2013-06-12 04:42:00,71.0,67.0,29.92,SSW,202,4.0,6.0,87,-99.99,,,-99.99,,2013-06-12 09:42:00,
2013-06-12 04:53:00,71.0,67.0,29.91,SSW,202,4.0,6.0,87,-99.99,,,-99.99,,2013-06-12 09:53:00,
2013-06-12 05:01:00,71.0,67.0,29.92,SSW,202,2.0,4.0,87,-99.99,,,-99.99,,2013-06-12 10:01:00,
2013-06-12 05:11:00,71.0,67.0,29.92,SSE,157,3.0,4.0,87,-99.99,,,-99.99,,2013-06-12 10:11:00,
2013-06-12 05:23:00,71.0,67.0,29.93,South,180,0.0,-999.0,88,-99.99,,,-99.99,,2013-06-12 10:23:00,
2013-06-12 05:33:00,70.0,67.0,29.93,North,0,0.0,-999.0,89,-99.99,,,-99.99,,2013-06-12 10:33:00,
2013-06-12 05:43:00,69.0,67.0,29.94,SE,135,0.0,-999.0,92,-99.99,,,-99.99,,2013-06-12 10:43:00,
2013-06-12 05:53:00,69.0,67.0,29.94,SSE,157,2.0,3.0,92,-99.99,,,-99.99,,2013-06-12 10:53:00,
2013-06-12 06:02:00,69.0,67.0,29.94,SSE,157,2.0,3.0,92,-99.99,,,-99.99,,2013-06-12 11:02:00,
2013-06-12 06:12:00,70.0,67.0,29.95,SSE,157,2.0,3.0,92,-99.99,,,-99.99,,2013-06-12 11:12:00,
2013-06-12 06:24:00,70.0,68.0,29.95,SSE,157,2.0,3.0,92,-99.99,,,-99.99,,2013-06-12 11:24:00,
2013-06-12 06:33:00,71.0,68.0,29.95,SSE,157,2.0,3.0,90,-99.99,,,-99.99,,2013-06-12 11:33:00,
2013-06-12 06:43:00,71.0,68.0,29.96,SSE,157,2.0,3.0,91,-99.99,,,-99.99,,2013-06-12 11:43:00,
2013-06-12 06:53:00,71.0,68.0,29.96,SSE,157,2.0,3.0,92,-99.99,,,-99.99,,2013-06-12 11:53:00,
2013-06-12 07:01:00,71.0,69.0,29.97,SSE,157,3.0,4.0,92,-99.99,,,-99.99,,2013-06-12 12:01:00,
2013-06-12 07:11:00,72.0,69.0,29.97,SSE,157,2.0,3.0,91,-99.99,,,-99.99,,2013-06-12 12:11:00,
2013-06-12 07:23:00,72.0,69.0,29.97,SSE,157,2.0,4.0,90,-99.99,,,-99.99,,2013-06-12 12:23:00,
2013-06-12 07:33:00,74.0,70.0,29.98,SSE,157,0.0,-999.0,88,-99.99,,,-99.99,,2013-06-12 12:33:00,
2013-06-12 07:42:00,74.0,70.0,29.98,SE,135,1.0,3.0,87,-99.99,,,-99.99,,2013-06-12 12:42:00,
2013-06-12 07:53:00,74.0,70.0,29.98,SE,135,0.0,-999.0,88,-99.99,,,-99.99,,2013-06-12 12:53:00,
2013-06-12 08:01:00,74.0,70.0,29.98,SSE,157,0.0,-999.0,88,-99.99,,,-99.99,,2013-06-12 13:01:00,
2013-06-12 08:12:00,74.0,70.0,29.98,SSE,157,2.0,4.0,86,-99.99,,,-99.99,,2013-06-12 13:12:00,
2013-06-12 08:22:00,74.0,70.0,29.98,SSE,157,4.0,7.0,87,-99.99,,,-99.99,,2013-06-12 13:22:00,
2013-06-12 08:32:00,75.0,70.0,29.97,SSE,157,3.0,6.0,86,-99.99,,,-99.99,,2013-06-12 13:32:00,
2013-06-12 08:43:00,76.0,71.0,29.97,SSE,157,4.0,7.0,85,-99.99,,,-99.99,,2013-06-12 13:43:00,
2013-06-12 08:53:00,76.0,71.0,29.97,South,180,5.0,7.0,85,-99.99,,,-99.99,,2013-06-12 13:53:00,
2013-06-12 09:02:00,77.0,71.0,29.96,South,180,7.0,10.0,83,-99.99,,,-99.99,,2013-06-12 14:02:00,
2013-06-12 09:11:00,78.0,72.0,29.96,South,180,8.0,12.0,81,-99.99,,,-99.99,,2013-06-12 14:11:00,
2013-06-12 09:24:00,78.0,72.0,29.96,SSW,202,8.0,13.0,80,-99.99,,,-99.99,,2013-06-12 14:24:00,
2013-06-12 09:33:00,78.0,71.0,29.95,SSW,202,7.0,11.0,80,-99.99,,,-99.99,,2013-06-12 14:33:00,
2013-06-12 09:43:00,79.0,72.0,29.94,SSW,202,9.0,17.0,78,-99.99,,,-99.99,,2013-06-12 14:43:00,
2013-06-12 09:53:00,79.0,72.0,29.93,South,180,9.0,15.0,78,-99.99,,,-99.99,,2013-06-12 14:53:00,
2013-06-12 10:01:00,80.0,72.0,29.93,SSW,202,8.0,13.0,77,-99.99,,,-99.99,,2013-06-12 15:01:00,
2013-06-12 10:12:00,82.0,73.0,29.93,SSW,202,7.0,11.0,76,-99.99,,,-99.99,,2013-06-12 15:12:00,
2013-06-12 10:23:00,83.0,73.0,29.93,SW,225,11.0,17.0,73,-99.99,,,-99.99,,2013-06-12 15:23:00,
2013-06-12 10:33:00,83.0,74.0,29.92,SSW,202,7.0,13.0,74,-99.99,,,-99.99,,2013-06-12 15:33:00,
2013-06-12 10:43:00,84.0,74.0,29.92,SSW,202,8.0,12.0,72,-99.99,,,-99.99,,2013-06-12 15:43:00,
2013-06-12 10:52:00,85.0,74.0,29.92,SSW,202,9.0,15.0,71,-99.99,,,-99.99,,2013-06-12 15:52:00,
2013-06-12 11:01:00,85.0,74.0,29.91,SSW,202,11.0,17.0,70,-99.99,,,-99.99,,2013-06-12 16:01:00,
2013-06-12 11:11:00,85.0,74.0,29.91,SSW,202,9.0,15.0,70,-99.99,,,-99.99,,2013-06-12 16:11:00,
2013-06-12 11:22:00,86.0,74.0,29.91,SSW,202,10.0,16.0,68,-99.99,,,-99.99,,2013-06-12 16:22:00,
2013-06-12 11:32:00,87.0,75.0,29.91,South,180,10.0,15.0,67,-99.99,,,-99.99,,2013-06-12 16:32:00,
2013-06-12 11:43:00,87.0,74.0,29.91,SSW,202,10.0,16.0,66,-99.99,,,-99.99,,2013-06-12 16:43:00,
2013-06-12 11:52:00,88.0,74.0,29.90,SSW,202,11.0,15.0,65,-99.99,,,-99.99,,2013-06-12 16:52:00,
2013-06-12 12:01:00,88.0,75.0,29.89,SSW,202,11.0,18.0,65,-99.99,,,-99.99,,2013-06-12 17:01:00,
2013-06-12 12:11:00,88.0,74.0,29.89,SSW,202,13.0,20.0,63,-99.99,,,-99.99,,2013-06-12 17:11:00,
2013-06-12 12:22:00,88.0,74.0,29.88,SSW,202,13.0,18.0,63,-99.99,,,-99.99,,2013-06-12 17:22:00,
2013-06-12 12:33:00,89.0,75.0,29.88,SSW,202,12.0,20.0,63,-99.99,,,-99.99,,2013-06-12 17:33:00,
2013-06-12 12:42:00,89.0,75.0,29.87,SSW,202,11.0,19.0,64,-99.99,,,-99.99,,2013-06-12 17:42:00,
2013-06-12 12:52:00,89.0,74.0,29.86,South,180,13.0,20.0,61,-99.99,,,-99.99,,2013-06-12 17:52:00,
2013-06-12 13:02:00,89.0,74.0,29.86,SSW,202,14.0,25.0,60,-99.99,,,-99.99,,2013-06-12 18:02:00,
2013-06-12 13:12:00,90.0,74.0,29.85,SSW,202,15.0,22.0,59,-99.99,,,-99.99,,2013-06-12 18:12:00,
2013-06-12 13:22:00,90.0,73.0,29.85,SSW,202,17.0,23.0,58,-99.99,,,-99.99,,2013-06-12 18:22:00,
2013-06-12 13:32:00,90.0,73.0,29.85,SSW,202,16.0,22.0,57,-99.99,,,-99.99,,2013-06-12 18:32:00,
2013-06-12 13:43:00,91.0,73.0,29.85,SSW,202,16.0,23.0,57,-99.99,,,-99.99,,2013-06-12 18:43:00,
2013-06-12 13:53:00,91.0,73.0,29.84,SSW,202,14.0,21.0,57,-99.99,,,-99.99,,2013-06-12 18:53:00,
2013-06-12 14:01:00,91.0,74.0,29.84,SW,225,15.0,24.0,56,-99.99,,,-99.99,,2013-06-12 19:01:00,
2013-06-12 14:11:00,91.0,73.0,29.83,SSW,202,17.0,25.0,55,-99.99,,,-99.99,,2013-06-12 19:11:00,
2013-06-12 14:22:00,92.0,73.0,29.83,SSW,202,16.0,26.0,54,-99.99,,,-99.99,,2013-06-12 19:22:00,
2013-06-12 14:32:00,92.0,73.0,29.83,SSW,202,16.0,22.0,55,-99.99,,,-99.99,,2013-06-12 19:32:00,
2013-06-12 14:42:00,92.0,72.0,29.83,SSW,202,18.0,24.0,53,-99.99,,,-99.99,,2013-06-12 19:42:00,
2013-06-12 14:52:00,92.0,73.0,29.83,SW,225,16.0,26.0,55,-99.99,,,-99.99,,2013-06-12 19:52:00,
2013-06-12 15:01:00,92.0,72.0,29.83,SW,225,18.0,25.0,53,-99.99,,,-99.99,,2013-06-12 20:01:00,
2013-06-12 15:11:00,92.0,72.0,29.83,SW,225,18.0,25.0,52,-99.99,,,-99.99,,2013-06-12 20:11:00,
2013-06-12 15:22:00,92.0,72.0,29.82,SW,225,18.0,28.0,52,-99.99,,,-99.99,,2013-06-12 20:22:00,
2013-06-12 15:32:00,92.0,71.0,29.82,SW,225,19.0,27.0,51,-99.99,,,-99.99,,2013-06-12 20:32:00,
2013-06-12 15:42:00,92.0,72.0,29.82,SW,225,17.0,25.0,52,-99.99,,,-99.99,,2013-06-12 20:42:00,
2013-06-12 15:54:00,92.0,71.0,29.82,SW,225,20.0,29.0,51,-99.99,,,-99.99,,2013-06-12 20:54:00,
2013-06-12 16:01:00,92.0,71.0,29.82,SW,225,18.0,26.0,52,-99.99,,,-99.99,,2013-06-12 21:01:00,
2013-06-12 16:11:00,92.0,72.0,29.82,SW,225,18.0,27.0,51,-99.99,,,-99.99,,2013-06-12 21:11:00,
2013-06-12 16:22:00,92.0,71.0,29.82,SW,225,19.0,26.0,50,-99.99,,,-99.99,,2013-06-12 21:22:00,
2013-06-12 16:33:00,92.0,72.0,29.82,SW,225,15.0,23.0,51,-99.99,,,-99.99,,2013-06-12 21:33:00,
2013-06-12 16:43:00,92.0,70.0,29.82,SW,225,21.0,28.0,50,-99.99,,,-99.99,,2013-06-12 21:43:00,
2013-06-12 16:52:00,90.0,70.0,29.82,SW,225,18.0,29.0,52,-99.99,,,-99.99,,2013-06-12 21:52:00,
2013-06-12 17:01:00,90.0,70.0,29.82,SW,225,19.0,28.0,52,-99.99,,,-99.99,,2013-06-12 22:01:00,
2013-06-12 17:11:00,90.0,71.0,29.82,WSW,247,17.0,22.0,53,-99.99,,,-99.99,,2013-06-12 22:11:00,
2013-06-12 17:22:00,90.0,71.0,29.81,WSW,247,15.0,21.0,54,-99.99,,,-99.99,,2013-06-12 22:22:00,
2013-06-12 17:32:00,89.0,72.0,29.81,SW,225,13.0,18.0,57,-99.99,,,-99.99,,2013-06-12 22:32:00,
2013-06-12 17:43:00,89.0,71.0,29.81,WSW,247,15.0,22.0,56,-99.99,,,-99.99,,2013-06-12 22:43:00,
2013-06-12 17:52:00,89.0,72.0,29.81,WSW,247,13.0,20.0,58,-99.99,,,-99.99,,2013-06-12 22:52:00,
2013-06-12 18:02:00,89.0,71.0,29.81,WSW,247,18.0,29.0,55,-99.99,,,-99.99,,2013-06-12 23:02:00,
2013-06-12 18:12:00,89.0,72.0,29.81,WSW,247,16.0,22.0,57,-99.99,,,-99.99,,2013-06-12 23:12:00,
2013-06-12 18:22:00,90.0,73.0,29.80,WSW,247,10.0,16.0,58,-99.99,,,-99.99,,2013-06-12 23:22:00,
2013-06-12 18:32:00,90.0,73.0,29.80,WSW,247,14.0,20.0,58,-99.99,,,-99.99,,2013-06-12 23:32:00,
2013-06-12 18:42:00,90.0,72.0,29.80,WSW,247,18.0,25.0,57,-99.99,,,-99.99,,2013-06-12 23:42:00,
2013-06-12 18:52:00,89.0,72.0,29.79,WSW,247,17.0,25.0,58,-99.99,,,-99.99,,2013-06-12 23:52:00,
2013-06-12 19:01:00,89.0,72.0,29.79,WSW,247,15.0,22.0,58,-99.99,,,-99.99,,2013-06-13 00:01:00,
2013-06-12 19:12:00,88.0,73.0,29.79,SW,225,13.0,21.0,60,-99.99,,,-99.99,,2013-06-13 00:12:00,
2013-06-12 19:22:00,88.0,73.0,29.79,SW,225,13.0,22.0,61,-99.99,,,-99.99,,2013-06-13 00:22:00,
2013-06-12 19:32:00,88.0,73.0,29.79,SW,225,13.0,18.0,62,-99.99,,,-99.99,,2013-06-13 00:32:00,
2013-06-12 19:42:00,87.0,73.0,29.79,SW,225,12.0,18.0,63,-99.99,,,-99.99,,2013-06-13 00:42:00,
2013-06-12 19:52:00,86.0,73.0,29.79,SW,225,11.0,16.0,64,-99.99,,,-99.99,,2013-06-13 00:52:00,
2013-06-12 20:01:00,86.0,73.0,29.79,SW,225,12.0,19.0,65,-99.99,,,-99.99,,2013-06-13 01:01:00,
2013-06-12 20:12:00,86.0,73.0,29.79,SW,225,10.0,17.0,66,-99.99,,,-99.99,,2013-06-13 01:12:00,
2013-06-12 20:22:00,85.0,73.0,29.79,SW,225,10.0,16.0,66,-99.99,,,-99.99,,2013-06-13 01:22:00,
2013-06-12 20:32:00,85.0,73.0,29.79,SW,225,9.0,14.0,67,-99.99,,,-99.99,,2013-06-13 01:32:00,
2013-06-12 20:43:00,84.0,73.0,29.79,SW,225,10.0,13.0,69,-99.99,,,-99.99,,2013-06-13 01:43:00,
2013-06-12 20:53:00,84.0,73.0,29.80,SW,225,11.0,16.0,69,-99.99,,,-99.99,,2013-06-13 01:53:00,
2013-06-12 21:02:00,83.0,73.0,29.80,WSW,247,10.0,14.0,71,-99.99,,,-99.99,,2013-06-13 02:02:00,
2013-06-12 21:12:00,83.0,73.0,29.81,WSW,247,7.0,13.0,72,-99.99,,,-99.99,,2013-06-13 02:12:00,
2013-06-12 21:22:00,82.0,73.0,29.81,WSW,247,7.0,12.0,76,-99.99,,,-99.99,,2013-06-13 02:22:00,
2013-06-12 21:33:00,82.0,73.0,29.81,WSW,247,7.0,10.0,76,-99.99,,,-99.99,,2013-06-13 02:33:00,
2013-06-12 21:43:00,81.0,73.0,29.81,WSW,247,6.0,9.0,78,-99.99,,,-99.99,,2013-06-13 02:43:00,
2013-06-12 21:52:00,81.0,74.0,29.81,WSW,247,7.0,11.0,78,-99.99,,,-99.99,,2013-06-13 02:52:00,
2013-06-12 22:02:00,81.0,74.0,29.81,WSW,247,6.0,10.0,79,-99.99,,,-99.99,,2013-06-13 03:02:00,
2013-06-12 22:12:00,80.0,74.0,29.81,WSW,247,5.0,8.0,80,-99.99,,,-99.99,,2013-06-13 03:12:00,
2013-06-12 22:22:00,80.0,74.0,29.82,WSW,247,6.0,8.0,81,-99.99,,,-99.99,,2013-06-13 03:22:00,
2013-06-12 22:33:00,80.0,74.0,29.82,WSW,247,5.0,7.0,81,-99.99,,,-99.99,,2013-06-13 03:33:00,
2013-06-12 22:42:00,80.0,74.0,29.82,WSW,247,6.0,9.0,81,-99.99,,,-99.99,,2013-06-13 03:42:00,
2013-06-12 22:52:00,80.0,73.0,29.82,WSW,247,7.0,10.0,81,-99.99,,,-99.99,,2013-06-13 03:52:00,
2013-06-12 23:01:00,80.0,73.0,29.82,WSW,247,8.0,12.0,81,-99.99,,,-99.99,,2013-06-13 04:01:00,
2013-06-12 23:11:00,80.0,73.0,29.83,West,270,9.0,16.0,79,-99.99,,,-99.99,,2013-06-13 04:11:00,
2013-06-12 23:22:00,81.0,72.0,29.84,WNW,292,11.0,16.0,75,-99.99,,,-99.99,,2013-06-13 04:22:00,
2013-06-12 23:32:00,81.0,72.0,29.84,WNW,292,11.0,20.0,73,-99.99,,,-99.99,,2013-06-13 04:32:00,
2013-06-12 23:43:00,81.0,70.0,29.85,WNW,292,12.0,19.0,70,-99.99,,,-99.99,,2013-06-13 04:43:00,
2013-06-12 23:53:00,80.0,70.0,29.86,WNW,292,11.0,17.0,72,-99.99,,,-99.99,,2013-06-13 04:53:00,